Flag for USA

Past Weather in Raleigh, North Carolina, USA — Yesterday and Last 2 Weeks

Now
71 °F

Clear.


Feels Like: 67 °F
Forecast: 90 / 71 °F
Wind: No wind

Location: Raleigh-Durham International Airport

Current Time: Jul 14, 2020 at 7:08:29 am

Latest Report: Jul 14, 2020 at 5:51 am


Visibility: 10 mi

Pressure: 29.94 "Hg

Humidity: 93%

Dew Point: 69 °F

Location of RaleighLocation

Past Weather in Raleigh — Graph

°F

Raleigh Temperature Yesterday

Maximum temperature yesterday: 91 °F (at 3:51 pm)
Minimum temperature yesterday: 69 °F (at 6:51 am)
Average temperature yesterday: 80 °F

High & Low Weather Summary for the Past Weeks

 TemperatureHumidityPressure
High93 °F (Jul 3, 1:51 pm)100% (Jul 10, 5:51 am)30.09 "Hg (Jul 10, 5:51 am)
Low67 °F (Jul 3, 5:51 am)33% (Jul 3, 1:51 pm)29.75 "Hg (Jul 12, 5:51 pm)
Average79 °F75%29.90 "Hg
* Reported Jun 29 5:51 am — Jul 14 5:51 am, Raleigh. Weather by CustomWeather, © 2020

Note: Actual official high and low records may vary slightly from our data, if they occured in-between our weather recording intervals... More about our weather records

Raleigh Weather History for the Previous 24 Hours

Scroll right to see more
 ConditionsComfort  
Time TempWeatherWind HumidityBarometerVisibility
5:51 am
Tue, Jul 14
71 °FClear.No wind93%29.94 "Hg10 mi
4:51 am70 °FClear.5 mph93%29.91 "Hg10 mi
3:51 am70 °FPassing clouds.No wind93%29.91 "Hg10 mi
2:51 am71 °FPassing clouds.No wind93%29.92 "Hg10 mi
1:51 am71 °FPassing clouds.No wind93%29.90 "Hg10 mi
12:51 am73 °FPassing clouds.5 mph90%29.90 "Hg10 mi
11:51 pm
Mon, Jul 13
73 °FPassing clouds.No wind88%29.90 "Hg10 mi
10:51 pm73 °FPassing clouds.3 mph88%29.90 "Hg10 mi
9:51 pm74 °FPassing clouds.No wind85%29.90 "Hg10 mi
8:51 pm75 °FPassing clouds.3 mph82%29.89 "Hg10 mi
7:51 pm79 °FBroken clouds.12 mph69%29.88 "Hg10 mi
7:33 pm81 °FBroken clouds.13 mph67%29.89 "Hg10 mi
7:04 pm87 °FThunderstorms. Broken clouds.8 mph55%29.87 "Hg10 mi
6:51 pm87 °FBroken clouds.8 mph57%29.85 "Hg10 mi
5:51 pm91 °FBroken clouds.9 mph50%29.83 "Hg10 mi
4:51 pm88 °FBroken clouds.5 mph55%29.82 "Hg10 mi
3:51 pm91 °FBroken clouds.No wind52%29.83 "Hg10 mi
2:51 pm90 °FBroken clouds.3 mph52%29.84 "Hg10 mi
1:51 pm88 °FScattered clouds.7 mph54%29.86 "Hg10 mi
12:51 pm86 °FScattered clouds.No wind55%29.87 "Hg10 mi
11:51 am85 °FPassing clouds.No wind57%29.87 "Hg10 mi
10:51 am84 °FScattered clouds.No wind57%29.86 "Hg10 mi
9:51 am80 °FScattered clouds.3 mph71%29.86 "Hg10 mi
8:51 am78 °FPassing clouds.No wind74%29.85 "Hg10 mi
7:51 am74 °FPassing clouds.No wind85%29.85 "Hg10 mi
Weather by CustomWeather, © 2020

See weather overview